K5AJS-2 Weather Reports


time (UTC)temp
F
wind
direction
speed
knots
gust
knots
rain 1hr
in
rain 24hr
in
rain mn
in
humidity
%
barometer
mb
20260502130415 58 130 7.0 9.6 0.00 0.00 0.00 82 1018.2
20260502123410 56 128 1.7 1.7 0.00 0.00 0.00 85 1018.1
20260502122910 56 129 1.7 2.6 0.00 0.00 0.00 86 1018.0
20260502122410 56 128 1.7 1.7 0.00 0.00 0.00 86 1017.9
20260502121912 56 128 1.7 1.7 0.00 0.00 0.00 87 1018.0
20260502121410 56 127 0.9 1.7 0.00 0.00 0.00 87 1017.9
20260502120910 56 126 0.9 1.7 0.00 0.00 0.00 88 1017.8
20260502120410 56 126 0.9 0.9 0.00 0.00 0.00 88 1017.8
20260502115910 56 127 1.7 1.7 0.00 0.00 0.00 88 1017.6
20260502115410 56 127 0.9 1.7 0.00 0.00 0.00 89 1017.5
20260502114911 56 130 1.7 1.7 0.00 0.00 0.00 89 1017.4
20260502114410 56 133 1.7 1.7 0.00 0.00 0.00 89 1017.3
20260502113910 56 133 1.7 1.7 0.00 0.00 0.00 89 1017.2
20260502113410 56 136 1.7 2.6 0.00 0.00 0.00 89 1017.0
20260502112910 56 134 1.7 1.7 0.00 0.00 0.00 89 1016.9
20260502112410 56 133 0.9 1.7 0.00 0.00 0.00 88 1016.9
20260502111910 56 130 1.7 1.7 0.00 0.00 0.00 88 1016.7
20260502111410 56 131 0.9 1.7 0.00 0.00 0.00 88 1016.8
20260502110910 57 132 1.7 1.7 0.00 0.00 0.00 88 1016.8
20260502110410 57 131 1.7 1.7 0.00 0.00 0.00 88 1016.7
20260502105910 57 134 1.7 1.7 0.00 0.00 0.00 88 1016.6
20260502105410 57 132 0.9 0.9 0.00 0.00 0.00 88 1016.6
20260502104910 57 135 0.9 0.9 0.00 0.00 0.00 88 1016.7
20260502104410 57 132 0.9 0.9 0.00 0.00 0.00 88 1016.7
20260502103910 57 115 0.9 1.7 0.00 0.00 0.00 88 1016.6
20260502103410 57 139 1.7 1.7 0.00 0.00 0.00 88 1016.6
20260502102910 57 130 1.7 1.7 0.00 0.00 0.00 88 1016.6
20260502102410 57 140 1.7 1.7 0.00 0.00 0.00 89 1016.4
20260502101910 57 123 1.7 1.7 0.00 0.00 0.00 89 1016.3
20260502101410 57 47 5.2 7.8 0.00 0.00 0.00 89 1016.2
20260502100910 57 135 1.7 1.7 0.00 0.00 0.00 89 1016.3
20260502100410 57 135 1.7 1.7 0.00 0.00 0.00 89 1016.3
20260502091410 57 133 1.7 1.7 0.00 0.00 0.00 89 1015.7
20260502090910 57 131 1.7 1.7 0.00 0.00 0.00 89 1015.6
20260502090410 58 132 1.7 1.7 0.00 0.00 0.00 89 1015.6
20260502071410 58 104 1.7 1.7 0.00 0.00 0.00 88 1015.3
20260502070910 58 127 0.9 1.7 0.00 0.00 0.00 88 1015.4
20260502070412 58 128 0.9 1.7 0.00 0.00 0.00 88 1015.4
20260502065910 58 121 1.7 1.7 0.00 0.00 0.00 88 1015.5
20260502065411 58 131 0.9 1.7 0.00 0.00 0.00 88 1015.6
20260502064910 58 143 1.7 1.7 0.00 0.00 0.00 88 1015.4
20260502064414 58 142 1.7 1.7 0.00 0.00 0.00 88 1015.2
20260502063910 58 128 0.9 1.7 0.00 0.00 0.00 88 1015.0
20260502063411 58 111 0.9 1.7 0.00 0.00 0.00 88 1015.0
20260502062910 58 157 1.7 1.7 0.00 0.00 0.00 88 1015.1
20260502062411 58 132 0.9 0.9 0.00 0.00 0.00 88 1014.9
20260502061910 58 130 0.9 0.9 0.00 0.00 0.00 88 1014.7
20260502061411 58 129 0.9 1.7 0.00 0.00 0.00 88 1014.7
20260502060910 58 139 0.9 0.9 0.00 0.00 0.00 89 1014.6
20260502060410 58 147 0.9 0.9 0.00 0.00 0.00 89 1014.6
20260502055911 58 121 1.7 1.7 0.00 0.00 0.00 89 1014.5
20260502055410 59 129 0.9 0.9 0.00 0.00 0.00 89 1014.4
20260502054910 59 131 1.7 1.7 0.00 0.00 0.00 89 1014.4
20260502054410 59 142 1.7 1.7 0.00 0.00 0.00 89 1014.2
20260502053910 59 130 2.6 2.6 0.00 0.00 0.00 89 1014.2
20260502053410 59 133 2.6 2.6 0.00 0.00 0.00 89 1014.3
20260502052911 59 132 1.7 2.6 0.00 0.00 0.00 90 1014.3
20260502052410 59 131 2.6 2.6 0.00 0.00 0.00 90 1014.2
20260502051915 60 130 1.7 2.6 0.00 0.00 0.00 90 1014.3
20260502051410 60 130 1.7 1.7 0.00 0.00 0.00 90 1014.2
20260502050911 60 128 1.7 2.6 0.00 0.00 0.00 90 1014.1
20260502050410 60 129 1.7 2.6 0.00 0.00 0.00 90 1014.3
20260502045910 60 129 1.7 2.6 0.00 0.00 1.90 90 1014.3
20260502045410 60 131 1.7 1.7 0.00 0.00 1.90 90 1014.1
20260502044910 60 129 1.7 2.6 0.00 0.00 1.90 90 1013.9
20260502044410 60 130 1.7 2.6 0.00 0.00 1.90 90 1013.9
20260502043910 60 131 1.7 2.6 0.00 0.00 1.90 90 1013.7
20260502043410 60 131 1.7 1.7 0.00 0.00 1.90 90 1013.5
20260502042910 60 128 1.7 1.7 0.00 0.00 1.90 90 1013.4
20260502042411 60 130 2.6 2.6 0.00 0.00 1.90 90 1013.1
20260502041910 60 132 1.7 1.7 0.00 0.00 1.90 90 1013.1
20260502041410 60 131 1.7 1.7 0.00 0.00 1.90 91 1013.0
20260502040910 60 129 1.7 1.7 0.00 0.00 1.90 91 1013.1
20260502040410 60 130 1.7 1.7 0.00 0.00 1.90 91 1013.1
20260502035910 60 132 1.7 2.6 0.00 0.00 1.90 91 1013.2
20260502035410 60 133 1.7 1.7 0.00 0.00 1.90 91 1013.2
20260502034910 60 132 0.9 1.7 0.00 0.00 1.90 92 1013.3
20260502034410 60 122 0.9 0.9 0.00 0.00 1.90 92 1013.2
20260502033910 60 96 0.9 0.9 0.00 0.00 1.90 92 1013.2
20260502033410 60 94 0.9 0.9 0.00 0.00 1.90 92 1013.3
20260502032910 60 96 0.9 0.9 0.00 0.00 1.90 92 1013.2
20260502032410 60 94 0.9 0.9 0.00 0.00 1.90 93 1012.8
20260502031910 60 115 0.9 1.7 0.01 0.00 1.90 93 1012.9
20260502031410 61 106 0.9 1.7 0.01 0.00 1.90 93 1012.8
20260502030911 61 125 0.9 1.7 0.01 0.00 1.90 93 1012.9
20260502030410 61 115 0.9 1.7 0.01 0.00 1.90 93 1012.7
20260502025910 61 126 1.7 1.7 0.01 0.00 1.90 93 1012.6
20260502025411 61 131 1.7 1.7 0.01 0.00 1.90 94 1012.5
20260502024910 61 127 1.7 1.7 0.01 0.00 1.90 94 1012.4
20260502024411 61 132 1.7 1.7 0.01 0.00 1.90 94 1012.1
20260502023912 61 128 0.9 1.7 0.01 0.00 1.90 94 1012.0
20260502023410 61 127 1.7 1.7 0.01 0.00 1.90 94 1012.0
20260502022911 61 128 0.9 1.7 0.01 0.00 1.90 94 1011.7
20260502022410 61 132 1.7 3.5 0.01 0.00 1.90 94 1011.7
20260502021910 61 133 1.7 1.7 0.00 0.00 1.90 94 1011.7
20260502021410 61 132 0.9 1.7 0.00 0.00 1.90 94 1012.0
20260502020910 61 131 0.9 1.7 0.00 0.00 1.89 94 1011.9
20260502020411 61 129 0.9 1.7 0.00 0.00 1.89 94 1011.6
20260502015910 61 129 1.7 1.7 0.00 0.00 1.89 94 1011.6
20260502015410 61 132 3.5 3.5 0.00 0.00 1.89 94 1011.5
20260502014911 61 130 3.5 4.3 0.00 0.00 1.89 94 1011.5
20260502014410 61 133 2.6 2.6 0.00 0.00 1.89 94 1011.5
20260502013911 61 131 2.6 3.5 0.00 0.00 1.89 94 1011.3
20260502013410 61 133 2.6 3.5 0.00 0.00 1.89 94 1011.1
20260502012910 61 133 2.6 2.6 0.00 0.00 1.89 94 1010.7
20260502012410 61 127 2.6 3.5 0.00 0.00 1.89 94 1011.0
20260502011911 62 131 2.6 3.5 0.01 0.00 1.88 94 1010.8
20260502011411 62 131 3.5 3.5 0.06 0.00 1.88 94 1011.2
20260502010910 62 133 3.5 3.5 0.06 0.00 1.88 94 1011.4
20260502010410 62 129 3.5 3.5 0.12 0.00 1.88 94 1011.3
20260502005910 62 135 2.6 3.5 0.12 0.00 1.88 94 1011.2
20260502005410 62 132 3.5 3.5 0.16 0.00 1.88 94 1010.9
20260502004911 62 132 2.6 3.5 0.16 0.00 1.89 94 1010.7
20260502004410 62 132 3.5 3.5 0.16 0.00 1.89 94 1010.5
20260502003910 62 132 3.5 3.5 0.17 0.00 1.89 94 1010.3
20260502003410 62 123 3.5 4.3 0.17 0.00 1.89 94 1010.0
20260502002910 62 111 3.5 3.5 0.17 0.00 1.89 94 1009.8
20260502002410 62 133 2.6 3.5 0.25 0.00 1.96 94 1009.9
20260502001910 63 132 3.5 5.2 0.25 0.00 1.97 94 1009.4
20260502001410 63 131 4.3 6.1 0.25 0.00 1.97 94 1009.3
20260502000910 63 163 3.5 7.8 0.30 0.00 1.96 94 1009.4
20260502000410 64 222 7.0 8.7 0.30 0.00 2.03 94 1009.7
20260501235911 64 164 6.1 8.7 0.22 0.00 1.93 94 1009.3
20260501235410 64 219 5.2 10.4 0.06 0.00 1.79 94 1009.8
20260501234910 64 170 5.2 7.8 0.03 0.00 1.75 94 1009.1
20260501233945 64 129 1.7 2.6 0.03 0.00 1.74 94 1007.6
20260501233410 64 100 3.5 9.6 0.02 0.00 1.74 94 1007.1
20260501232910 64 114 4.3 7.8 0.00 0.00 1.71 94 1007.0
20260501232410 64 120 2.6 5.2 0.00 0.00 1.71 94 1008.1
20260501231910 64 119 3.5 7.0 0.00 0.00 1.71 94 1007.0
20260501231410 64 103 4.3 7.0 0.00 0.00 1.71 94 1007.1
20260501230910 64 98 1.7 6.1 0.00 0.00 1.71 94 1007.1
20260501230410 64 121 1.7 1.7 0.00 0.00 1.71 94 1006.9
20260501225910 64 116 1.7 1.7 0.04 0.00 1.71 94 1007.4
20260501225411 64 120 1.7 1.7 0.04 0.00 1.71 94 1006.9
20260501224910 64 122 1.7 1.7 0.04 0.00 1.71 94 1006.9
20260501224411 64 108 1.7 1.7 0.05 0.00 1.71 94 1006.9
20260501223910 64 123 1.7 3.5 0.05 0.00 1.71 94 1007.0
20260501223410 64 55 1.7 3.5 0.05 0.00 1.71 94 1007.3
20260501222910 64 66 2.6 6.1 0.10 0.00 1.71 94 1007.3
20260501222410 64 47 2.6 4.3 0.10 0.00 1.76 94 1007.4
20260501221910 64 122 1.7 4.3 0.10 0.00 1.77 94 1007.6
20260501221410 64 93 2.6 5.2 0.09 0.00 1.77 94 1007.8
20260501220910 65 130 1.7 1.7 0.09 0.00 1.77 94 1007.8
20260501220411 64 124 1.7 1.7 0.09 0.00 1.74 94 1007.7
20260501215911 65 132 1.7 2.6 0.06 0.00 1.74 94 1008.0
20260501215411 65 97 2.6 7.8 0.06 0.00 1.71 94 1008.1
20260501214910 65 130 0.9 1.7 0.07 0.00 1.71 94 1008.3
20260501214410 65 129 2.6 2.6 0.07 0.00 1.71 94 1008.4
20260501213910 65 130 1.7 1.7 0.11 0.00 1.71 94 1008.6
20260501213410 65 131 2.6 2.6 0.28 0.00 1.71 94 1008.5
20260501212910 65 114 1.7 1.7 0.67 0.00 1.71 94 1008.7
20260501212411 65 129 1.7 1.7 0.62 0.00 1.02 94 1008.6
20260501211910 65 129 1.7 1.7 0.70 0.00 1.00 94 1008.7
20260501211410 65 66 1.7 2.6 0.76 0.00 1.00 94 1008.3
20260501210910 65 57 2.6 2.6 0.79 0.00 1.00 94 1008.0
20260501210410 65 133 1.7 2.6 0.80 0.00 1.00 94 1008.0
20260501205910 65 128 2.6 2.6 0.80 0.00 1.00 94 1007.6
20260501205410 65 130 1.7 2.6 0.79 0.00 0.99 94 1006.8
20260501204910 65 69 4.3 8.7 0.97 0.00 1.17 94 1006.3
20260501204411 65 140 2.6 3.5 0.97 0.00 1.17 93 1007.0
20260501203911 65 136 2.6 3.5 0.97 0.00 1.13 93 1007.0
20260501203410 65 130 2.6 3.5 1.29 0.00 1.40 93 1006.8
20260501202911 66 111 2.6 3.5 0.15 0.00 0.67 90 1008.5
20260501201910 66 108 3.5 3.5 0.15 0.00 0.26 90 1008.2
20260501201411 66 101 2.6 3.5 0.18 0.00 0.24 90 1006.0
20260501200911 66 130 1.7 2.6 0.21 0.00 0.24 89 1005.3
20260501200410 66 94 1.7 2.6 0.21 0.00 0.24 89 1005.4
20260501195910 66 358 2.6 3.5 0.21 0.00 0.24 89 1005.0
20260501195410 66 357 1.7 2.6 0.21 0.00 0.24 89 1004.8
20260501194910 66 359 2.6 3.5 0.22 0.00 0.25 89 1005.3
20260501194410 66 357 1.7 2.6 0.22 0.00 0.25 88 1005.4
20260501193910 66 0 1.7 1.7 0.16 0.00 0.19 88 1006.6
20260501193410 66 358 2.6 3.5 0.16 0.00 0.19 87 1007.2
20260501192910 67 16 1.7 2.6 0.03 0.00 0.18 86 1007.1
20260501192412 67 344 2.6 3.5 0.03 0.00 0.16 85 1007.0
20260501191910 68 359 1.7 2.6 0.00 0.00 0.07 84 1007.4
20260501191411 68 359 1.7 2.6 0.00 0.00 0.04 82 1007.2
20260501190910 68 359 2.6 3.5 0.00 0.00 0.03 82 1007.4
20260501190411 68 0 1.7 2.6 0.00 0.00 0.03 82 1007.3
20260501185910 69 359 2.6 3.5 0.00 0.00 0.04 82 1007.5
20260501184910 68 358 1.7 2.6 0.00 0.00 0.04 83 1007.4
20260501184410 68 359 2.6 3.5 0.00 0.00 0.04 83 1007.5
20260501183911 68 13 11.3 16.5 0.00 0.00 0.04 84 1008.0
20260501183411 68 19 9.6 20.0 0.00 0.00 0.04 84 1007.9
20260501182910 68 6 12.2 22.6 0.01 0.00 0.04 85 1007.8
20260501182410 68 10 12.2 23.5 0.01 0.00 0.04 85 1007.9
20260501181910 67 12 11.3 20.9 0.01 0.00 0.02 86 1008.0
20260501181410 67 7 10.4 18.2 0.01 0.00 0.02 86 1007.9
20260501180910 67 11 9.6 18.2 0.01 0.00 0.02 86 1008.0
20260501180411 67 14 11.3 22.6 0.01 0.00 0.02 87 1007.7
20260501175911 67 11 8.7 13.0 0.01 0.00 0.02 87 1007.8
20260501175410 67 26 8.7 19.1 0.01 0.00 0.02 87 1007.8
20260501174910 67 8 10.4 18.2 0.01 0.00 0.02 88 1007.9
20260501174410 67 7 13.0 21.7 0.01 0.00 0.02 88 1007.9
20260501172911 68 12 2.6 6.1 0.00 0.00 0.02 87 1008.7
20260501172410 68 0 3.5 3.5 0.00 0.00 0.02 87 1008.7
20260501171910 68 358 1.7 1.7 0.00 0.00 0.01 87 1009.0
20260501171410 69 358 1.7 1.7 0.00 0.00 0.01 87 1009.0
20260501170910 69 356 0.9 1.7 0.00 0.00 0.01 87 1009.1
20260501170410 69 357 0.9 1.7 0.00 0.00 0.01 86 1009.3
20260501165911 69 356 1.7 1.7 0.00 0.00 0.01 86 1009.7
20260501165410 70 357 0.9 1.7 0.00 0.00 0.01 86 1009.6
20260501164910 70 31 0.9 3.5 0.00 0.00 0.01 86 1009.5
20260501164410 70 101 5.2 7.8 0.00 0.00 0.01 86 1009.4
20260501163911 70 108 5.2 7.8 0.00 0.00 0.01 86 1009.2
20260501163411 70 99 5.2 7.8 0.00 0.00 0.01 86 1009.1
20260501162911 70 95 6.1 7.8 0.00 0.00 0.01 86 1009.3
20260501162410 70 97 6.1 7.8 0.00 0.00 0.01 86 1009.4
20260501161911 70 87 5.2 7.8 0.00 0.00 0.01 86 1009.5
20260501161410 70 85 6.1 7.8 0.00 0.00 0.01 86 1009.3
20260501155910 70 71 3.5 9.6 0.00 0.00 0.01 86 1009.1
20260501155410 70 84 5.2 7.0 0.00 0.00 0.01 86 1008.9
20260501154910 70 96 5.2 17.4 0.00 0.00 0.01 86 1008.9
20260501153910 70 84 12.2 14.8 0.00 0.00 0.01 86 1009.2
20260501153411 70 85 10.4 14.8 0.00 0.00 0.01 85 1009.0
20260501152911 70 85 10.4 13.9 0.00 0.00 0.01 84 1009.1
20260501145911 71 85 2.6 3.5 0.00 0.00 0.01 84 1008.7